Find Starlink 5902

NORAD ID: 55998 Int'l Des: 2023-042 Owner: SPXS Country: US Constellation: starlink operational
LEOCIRCULAR

Current View

Loading 3D Globe...

About Starlink 5902

Starlink 5902 (NORAD 55998) is a starlink constellation satellite (v1.5) launched Mar 24, 2023 by SPXS of US. It operates in LEO, CIRCULAR orbit with a mass of 305.00 kg.

Upcoming Passes

Passes for default location (London). Set your location on the main map for personalized predictions.

Altitude History

Loading altitude history...

Two-Line Element Set

1 55998U 23042N 26226.08723742 -.00000768 00000-0 -18388-4 0 9993
2 55998 43.0042 250.5130 0002041 259.6749 100.3872 15.27566648186945
Epoch: Aug 14, 2026 • Age: 17 hours

Current Status

Altitude 484.6 km
Apogee / Perigee N/A
Velocity 7.62 km/s
Sub-Earth Point -12.03°S, 163.17°W
Launch Date Mar 24, 2023
Age 3.3 years
Type internet

Technical Details

Classification Payload
Mass 305.00 kg
Dry Mass 290.00 kg
Total Mass 305.00 kg
Length 0.20 m
Diameter 2.80 m
Span 9.00 m
Shape Box + pan
Manufacturer SPXS
Bus Type Starlink
Phase Status In Orbit
Owner/State SPXS/US

Most Searched